This is the latest recevied weather packets stored in our database for station/object KK4PWJ-13. If no packets are shown the sender has not sent any weather packets the latest 10 day(s).
| Time | Temp. | Humidity | Pressure | Rain* | Wind** | Luminosity | Snow |
|---|---|---|---|---|---|---|---|
| 1778131043 | 18.33° C | 98% | 1009.7 hPa | 0 mm | - | 0 W/m² | - |
| 1778130740 | 18.33° C | 98% | 1009.7 hPa | 0 mm | - | 0 W/m² | - |
| 1778130437 | 18.33° C | 98% | 1010 hPa | 1.27 mm | - | 0 W/m² | - |
| 1778130134 | 18.33° C | 98% | 1010.2 hPa | 1.27 mm | - | 0 W/m² | - |
| 1778129830 | 18.33° C | 98% | 1010 hPa | 1.78 mm | - | 0 W/m² | - |
| 1778129526 | 18.33° C | 98% | 1008.2 hPa | 1.27 mm | - | 0 W/m² | - |
| 1778129224 | 18.33° C | 98% | 1009 hPa | 6.1 mm | - | 0 W/m² | - |
| 1778128920 | 18.33° C | 98% | 1009.5 hPa | 6.1 mm | - | 0 W/m² | - |
| 1778128617 | 18.33° C | 98% | 1009.1 hPa | 4.83 mm | - | 0 W/m² | - |
| 1778128314 | 18.33° C | 98% | 1010.5 hPa | 1.78 mm | - | 0 W/m² | - |
| 1778128010 | 18.33° C | 98% | 1010.1 hPa | 1.27 mm | - | 0 W/m² | - |
| 1778127705 | 18.89° C | 98% | 1010.1 hPa | 1.78 mm | - | 0 W/m² | - |
| 1778127402 | 18.89° C | 98% | 1010.9 hPa | 4.83 mm | - | 0 W/m² | - |
| 1778127098 | 18.89° C | 98% | 1011.3 hPa | 7.11 mm | - | 0 W/m² | - |
| 1778126796 | 18.89° C | 98% | 1011.6 hPa | 4.83 mm | - | 0 W/m² | - |
| 1778126492 | 18.89° C | 98% | 1011.5 hPa | 4.83 mm | - | 0 W/m² | - |
| 1778126188 | 18.33° C | 98% | 1011.8 hPa | 1.27 mm | - | 0 W/m² | - |
| 1778125884 | 18.33° C | 98% | 1011.6 hPa | 0 mm | - | 0 W/m² | - |
| 1778125279 | 18.33° C | 98% | 1011.3 hPa | 0 mm | - | 0 W/m² | - |
| 1778124977 | 18.33° C | 98% | 1011.1 hPa | 1.78 mm | - | 0 W/m² | - |
| 1778124674 | 18.33° C | 98% | 1010.9 hPa | 3.05 mm | - | 0 W/m² | - |
| 1778104958 | 22.78° C | 77% | 1009.5 hPa | 0 mm | - | 51 W/m² | - |
| 1778103443 | 22.22° C | 77% | 1009.8 hPa | 0 mm | - | 66 W/m² | - |
| 1778102232 | 22.22° C | 77% | 1009.7 hPa | 0 mm | - | 96 W/m² | - |
| 1778100716 | 21.67° C | 81% | 1009.8 hPa | 0 mm | - | 124 W/m² | - |
* Rain latest hour (hover to see other rain measurements)
** Current wind speed in m/s (hover to see current wind gust speed)